Weather History for Watertown, NY

Change the Weather History Date:

Monday, October 29, 2012

  Actual Average Record
Temperature  
Mean Temperature 52 °F 44 °F  
Max Temperature 59 °F 54 °F 73 °F (1955)
Min Temperature 45 °F 35 °F 16 °F (1969)
Degree Days  
Heating Degree Days 13 21  
Month to date heating degree days 339 481  
Since 1 July heating degree days 525 755  
Cooling Degree Days 0 0  
Month to date cooling degree days 1 0  
Year to date cooling degree days 607 359  
Growing Degree Days 2 (Base 50)    
Moisture  
Dew Point 47 °F    
Average Humidity 80    
Maximum Humidity 93    
Minimum Humidity 67    
Precipitation  
Precipitation 0.01 in 0.11 in 0.43 in (1968)
Month to date precipitation 2.62 3.43  
Year to date precipitation 28.68 28.95  
Sea Level Pressure  
Sea Level Pressure 29.57 in    
Wind  
Wind Speed 20 mph (NNE)    
Max Wind Speed 40 mph    
Max Gust Speed 58 mph    
Visibility 10 miles    
Events Rain    
T = Trace of Precipitation, MM = Missing Value Source: NWS Daily Summary

Daily Weather History Graph

Daily Weather History Graph

Search for Another Location

Airport:

Trip Planner

Search our weather history database for the weather conditions in past years. The results will help you decide how hot, cold, wet, or windy it might be!

Date:

Astronomy

Oct. 29, 2012 Rise Set
Actual Time 7:37 AM EDT 5:57 PM EDT
Civil Twilight 7:07 AM EDT 6:27 PM EDT
Nautical Twilight 6:33 AM EDT 7:01 PM EDT
Astronomical Twilight 5:59 AM EDT 7:34 PM EDT
Moon 5:46 PM EDT (10/29) 7:26 AM EDT (10/29)
Length of Visible Light 11h 20m
Length of Day
10h 20m
Full, 100% of the Moon is Illuminated
Oct 29
Full
Oct 29
Full
Nov 6
Last Quarter
Nov 13
New
Nov 20
First Quarter

Hourly Weather History & Observations

Time (EDT) Temp. Windchill Dew Point Humidity Pressure Visibility Wind Dir Wind Speed Gust Speed Precip Events Conditions
12:56 AM 45.0 °F 39.3 °F 43.0 °F 93% 29.89 in 10.0 mi NE 11.5 mph - N/A   Overcast
1:56 AM 45.0 °F 38.9 °F 43.0 °F 93% 29.86 in 10.0 mi NNE 12.7 mph - N/A   Overcast
2:56 AM 45.0 °F 38.9 °F 43.0 °F 93% 29.85 in 10.0 mi NNE 12.7 mph - N/A   Overcast
3:56 AM 46.0 °F 40.6 °F 44.1 °F 93% 29.83 in 10.0 mi NNE 11.5 mph - N/A   Overcast
4:56 AM 46.4 °F 40.7 °F 44.6 °F 93% 29.81 in 10.0 mi NNE 12.7 mph - N/A   Overcast
5:56 AM 46.9 °F - 45.0 °F 93% 29.81 in 10.0 mi NNE 13.8 mph - N/A   Overcast
6:56 AM 48.0 °F - 46.0 °F 93% 29.81 in 10.0 mi NNE 12.7 mph 20.7 mph N/A   Overcast
7:56 AM 48.2 °F - 46.4 °F 93% 29.77 in 10.0 mi NNE 17.3 mph 24.2 mph N/A   Overcast
8:56 AM 48.0 °F - 46.0 °F 93% 29.78 in 7.0 mi NNE 13.8 mph - N/A   Overcast
9:45 AM 50.0 °F - 46.4 °F 87% 29.76 in 10.0 mi NNE 13.8 mph 23.0 mph N/A   Overcast
9:56 AM 50.0 °F - 46.0 °F 86% 29.77 in 10.0 mi NNE 15.0 mph 20.7 mph N/A   Overcast
10:56 AM 50.0 °F - 46.9 °F 89% 29.73 in 10.0 mi NNE 13.8 mph 24.2 mph N/A   Overcast
11:18 AM 50.0 °F - 46.4 °F 87% 29.72 in 8.0 mi NNE 19.6 mph 27.6 mph N/A   Overcast
11:56 AM 51.8 °F - 46.4 °F 82% 29.70 in 8.0 mi NNE 18.4 mph 26.5 mph N/A   Overcast
12:39 PM 51.8 °F - 48.2 °F 88% 29.67 in 10.0 mi NNE 20.7 mph 27.6 mph N/A   Overcast
12:56 PM 52.0 °F - 48.0 °F 86% 29.67 in 10.0 mi NE 19.6 mph 24.2 mph N/A   Overcast
1:56 PM 52.0 °F - 48.0 °F 86% 29.62 in 10.0 mi NE 20.7 mph 28.8 mph N/A   Overcast
2:56 PM 53.1 °F - 48.0 °F 83% 29.56 in 10.0 mi NNE 17.3 mph 32.2 mph N/A   Overcast
3:56 PM 53.1 °F - 48.9 °F 86% 29.52 in 10.0 mi NNE 15.0 mph 26.5 mph N/A   Overcast
4:56 PM 53.1 °F - 48.9 °F 86% 29.45 in 10.0 mi NNE 21.9 mph 29.9 mph N/A   Overcast
5:56 PM 53.1 °F - 48.9 °F 86% 29.39 in 10.0 mi North 20.7 mph 25.3 mph 0.01 in Rain Light Rain
6:38 PM 57.2 °F - 51.8 °F 82% 29.35 in 10.0 mi NNE 29.9 mph 40.3 mph 0.00 in   Overcast
6:56 PM 57.0 °F - 51.1 °F 81% 29.33 in 10.0 mi NNE 27.6 mph 43.7 mph 0.00 in   Overcast
7:56 PM 57.2 °F - 50.0 °F 77% 29.29 in 10.0 mi NNE 27.6 mph 46.0 mph N/A   Overcast
8:24 PM 57.2 °F - 48.2 °F 72% 29.27 in 10.0 mi NNE 32.2 mph 48.3 mph N/A   Overcast
8:56 PM 59.0 °F - 48.0 °F 67% 29.26 in 10.0 mi NE 33.4 mph 47.2 mph 0.00 in   Overcast
9:56 PM 57.9 °F - 48.0 °F 70% 29.24 in 10.0 mi NNE 35.7 mph 49.5 mph N/A   Overcast
10:20 PM 59.0 °F - 48.2 °F 67% 29.23 in 10.0 mi NE 29.9 mph 42.6 mph N/A   Overcast
10:56 PM 59.0 °F - 50.0 °F 72% 29.22 in 10.0 mi NE 34.5 mph 46.0 mph N/A   Overcast
11:23 PM 57.2 °F - 51.8 °F 82% 29.22 in 10.0 mi NE 29.9 mph 41.4 mph 0.00 in Rain Light Rain
11:56 PM 57.0 °F - 52.0 °F 83% 29.21 in 10.0 mi NNE 26.5 mph 38.0 mph 0.00 in   Overcast